TimeCST,TemperatureF,Dew PointF,Humidity,Sea Level PressureIn,VisibilityMPH,Wind Direction,Wind SpeedMPH,Gust SpeedMPH,PrecipitationIn,Events,Conditions,WindDirDegrees,DateUTC
12:15 AM,36.5,30.2,78,30.27,10.0,Calm,Calm,-,N/A,,Clear,0,2014-01-18 06:15:00
12:35 AM,34.7,30.4,84,30.27,10.0,Calm,Calm,-,N/A,,Clear,0,2014-01-18 06:35:00
12:55 AM,34.2,29.3,82,30.27,10.0,Calm,Calm,-,N/A,,Clear,0,2014-01-18 06:55:00
1:15 AM,35.8,29.7,78,30.28,10.0,Calm,Calm,-,N/A,,Clear,0,2014-01-18 07:15:00
1:35 AM,36.5,29.1,75,30.28,10.0,Calm,Calm,-,N/A,,Clear,0,2014-01-18 07:35:00
1:55 AM,34.9,29.3,80,30.29,10.0,Calm,Calm,-,N/A,,Clear,0,2014-01-18 07:55:00
2:15 AM,34.0,29.1,82,30.29,10.0,Calm,Calm,-,N/A,,Clear,0,2014-01-18 08:15:00
2:35 AM,33.3,28.4,82,30.30,10.0,Calm,Calm,-,N/A,,Clear,0,2014-01-18 08:35:00
2:55 AM,32.4,28.8,87,30.30,10.0,Calm,Calm,-,N/A,,Clear,0,2014-01-18 08:55:00
3:15 AM,32.7,28.6,85,30.30,10.0,Calm,Calm,-,N/A,,Clear,0,2014-01-18 09:15:00
3:35 AM,32.2,27.9,84,30.30,10.0,Calm,Calm,-,N/A,,Clear,0,2014-01-18 09:35:00
3:55 AM,32.2,27.9,84,30.30,10.0,Calm,Calm,-,N/A,,Clear,0,2014-01-18 09:55:00
4:15 AM,32.2,26.4,79,30.29,10.0,Calm,Calm,-,N/A,,Clear,0,2014-01-18 10:15:00
4:35 AM,31.8,26.8,82,30.29,10.0,Calm,Calm,-,N/A,,Clear,0,2014-01-18 10:35:00
4:55 AM,32.0,27.3,83,30.29,10.0,Calm,Calm,-,N/A,,Clear,0,2014-01-18 10:55:00
5:15 AM,32.0,25.7,78,30.29,10.0,Calm,Calm,-,N/A,,Clear,0,2014-01-18 11:15:00
5:35 AM,32.0,26.2,79,30.29,10.0,Calm,Calm,-,N/A,,Clear,0,2014-01-18 11:35:00
5:55 AM,32.9,25.3,74,30.28,10.0,Calm,Calm,-,N/A,,Clear,0,2014-01-18 11:55:00
6:15 AM,33.1,23.7,68,30.28,10.0,ESE,3.5,-,N/A,,Clear,110,2014-01-18 12:15:00
6:35 AM,35.8,21.2,55,30.27,10.0,ESE,4.6,-,N/A,,Clear,110,2014-01-18 12:35:00
6:55 AM,36.7,20.5,52,30.27,10.0,ESE,3.5,-,N/A,,Clear,110,2014-01-18 12:55:00
7:15 AM,35.6,20.5,54,30.28,10.0,SE,5.8,-,N/A,,Clear,130,2014-01-18 13:15:00
7:35 AM,37.4,22.6,55,30.28,10.0,SE,6.9,-,N/A,,Clear,130,2014-01-18 13:35:00
7:55 AM,38.5,24.3,57,30.28,10.0,SSE,5.8,-,N/A,,Clear,150,2014-01-18 13:55:00
8:15 AM,40.3,25.5,56,30.28,10.0,SSE,4.6,-,N/A,,Clear,160,2014-01-18 14:15:00
8:35 AM,42.6,23.4,47,30.28,10.0,SSE,6.9,-,N/A,,Clear,150,2014-01-18 14:35:00
8:55 AM,44.2,23.0,43,30.29,10.0,SSE,9.2,-,N/A,,Clear,160,2014-01-18 14:55:00
9:15 AM,46.0,23.2,41,30.29,10.0,SSE,9.2,-,N/A,,Clear,160,2014-01-18 15:15:00
9:35 AM,48.2,23.4,38,30.29,10.0,SE,9.2,-,N/A,,Clear,140,2014-01-18 15:35:00
9:55 AM,49.1,21.7,34,30.30,10.0,SSE,11.5,16.1,N/A,,Clear,150,2014-01-18 15:55:00
10:15 AM,50.7,25.9,38,30.30,10.0,South,8.1,-,N/A,,Clear,190,2014-01-18 16:15:00
10:35 AM,51.1,26.4,38,30.29,10.0,South,9.2,-,N/A,,Clear,180,2014-01-18 16:35:00
10:55 AM,52.7,27.7,38,30.28,10.0,South,8.1,-,N/A,,Clear,180,2014-01-18 16:55:00
11:15 AM,54.0,26.2,34,30.28,10.0,South,11.5,-,N/A,,Clear,170,2014-01-18 17:15:00
11:35 AM,54.5,27.3,35,30.26,10.0,SSE,10.4,-,N/A,,Clear,160,2014-01-18 17:35:00
11:55 AM,55.4,28.9,36,30.25,10.0,SSW,8.1,-,N/A,,Clear,210,2014-01-18 17:55:00
12:15 PM,56.5,32.0,39,30.23,10.0,South,10.4,16.1,N/A,,Clear,180,2014-01-18 18:15:00
12:35 PM,56.7,32.4,40,30.22,10.0,SSW,6.9,-,N/A,,Clear,200,2014-01-18 18:35:00
12:55 PM,57.2,31.1,37,30.20,10.0,SSW,11.5,19.6,N/A,,Clear,200,2014-01-18 18:55:00
1:15 PM,57.7,29.5,34,30.20,10.0,South,10.4,18.4,N/A,,Clear,190,2014-01-18 19:15:00
1:35 PM,58.1,29.5,34,30.19,10.0,South,10.4,17.3,N/A,,Clear,190,2014-01-18 19:35:00
1:55 PM,58.1,31.1,36,30.19,10.0,SSW,11.5,16.1,N/A,,Clear,200,2014-01-18 19:55:00
2:15 PM,58.1,31.8,37,30.18,10.0,South,10.4,-,N/A,,Clear,180,2014-01-18 20:15:00
2:35 PM,58.1,31.8,37,30.18,10.0,South,15.0,20.7,N/A,,Clear,190,2014-01-18 20:35:00
2:55 PM,58.5,32.0,37,30.18,10.0,South,11.5,-,N/A,,Clear,190,2014-01-18 20:55:00
3:15 PM,58.5,33.8,39,30.17,10.0,South,11.5,17.3,N/A,,Clear,180,2014-01-18 21:15:00
3:35 PM,58.1,36.9,45,30.17,10.0,South,9.2,16.1,N/A,,Clear,180,2014-01-18 21:35:00
3:55 PM,57.7,37.2,46,30.17,10.0,South,10.4,17.3,N/A,,Clear,190,2014-01-18 21:55:00
4:15 PM,57.4,38.3,49,30.16,10.0,South,11.5,16.1,N/A,,Clear,180,2014-01-18 22:15:00
4:35 PM,56.7,39.0,52,30.17,10.0,South,11.5,-,N/A,,Clear,190,2014-01-18 22:35:00
4:55 PM,55.9,40.3,56,30.16,10.0,South,9.2,-,N/A,,Clear,190,2014-01-18 22:55:00
5:15 PM,54.9,41.4,60,30.16,10.0,South,8.1,-,N/A,,Clear,190,2014-01-18 23:15:00
5:35 PM,53.6,42.4,66,30.16,10.0,South,5.8,-,N/A,,Clear,190,2014-01-18 23:35:00
5:55 PM,53.1,42.8,68,30.16,10.0,South,4.6,-,N/A,,Clear,190,2014-01-18 23:55:00
6:15 PM,51.8,43.2,72,30.16,10.0,South,4.6,-,N/A,,Clear,190,2014-01-19 00:15:00
6:35 PM,51.1,43.2,74,30.15,10.0,South,4.6,-,N/A,,Clear,190,2014-01-19 00:35:00
6:55 PM,50.9,43.3,75,30.14,10.0,South,5.8,-,N/A,,Clear,190,2014-01-19 00:55:00
7:15 PM,50.4,43.7,78,30.14,10.0,South,3.5,-,N/A,,Clear,190,2014-01-19 01:15:00
7:35 PM,49.5,43.9,81,30.15,10.0,South,4.6,-,N/A,,Mostly Cloudy,190,2014-01-19 01:35:00
7:55 PM,48.7,43.7,83,30.14,10.0,South,3.5,-,N/A,,Mostly Cloudy,190,2014-01-19 01:55:00
8:15 PM,48.2,43.7,84,30.14,10.0,South,3.5,-,N/A,,Scattered Clouds,190,2014-01-19 02:15:00
8:35 PM,48.2,43.7,84,30.15,10.0,Calm,Calm,-,N/A,,Clear,0,2014-01-19 02:35:00
8:55 PM,47.7,43.7,86,30.16,10.0,Calm,Calm,-,N/A,,Clear,0,2014-01-19 02:55:00
9:15 PM,46.2,43.0,88,30.16,10.0,Calm,Calm,-,N/A,,Clear,0,2014-01-19 03:15:00
9:35 PM,45.5,42.8,90,30.15,10.0,South,5.8,-,N/A,,Clear,180,2014-01-19 03:35:00
9:55 PM,48.2,43.2,83,30.15,10.0,SSW,4.6,-,N/A,,Clear,200,2014-01-19 03:55:00
10:15 PM,47.3,43.5,87,30.15,10.0,South,5.8,-,N/A,,Clear,190,2014-01-19 04:15:00
10:35 PM,49.1,45.7,88,30.14,10.0,SSW,5.8,-,N/A,,Clear,200,2014-01-19 04:35:00
10:55 PM,50.4,47.7,90,30.13,10.0,SSW,6.9,-,N/A,,Clear,210,2014-01-19 04:55:00
11:15 PM,50.4,48.4,93,30.13,10.0,SW,4.6,-,N/A,,Clear,230,2014-01-19 05:15:00
11:35 PM,50.4,48.9,95,30.13,10.0,SW,4.6,-,N/A,,Clear,230,2014-01-19 05:35:00
11:55 PM,50.0,49.1,97,30.12,10.0,SW,5.8,-,N/A,,Clear,230,2014-01-19 05:55:00